Probability
0 0 0 0 0 0 0 0 0 0 0 0 0 0 0 0 0 3 3 10 32 45 39 39 42 42 52 42 39 48 45 42 45 45 42 45 52 48 55 58 61 65 58
0 0 0 0 0 0 0 0 0 0 0 0 0 0 0 0 0 3 3 6 23 32 45 35 32 45 45 35 39 48 45 35 42 35 42 48 52 48 61 58 61 58 58
0 0 0 0 0 0 0 0 0 0 0 0 0 0 0 0 0 3 3 0 10 19 26 26 32 35 42 35 32 32 39 32 39 39 39 48 48 52 58 58 55 52 55
0 0 0 0 0 0 0 0 0 0 0 0 0 0 0 0 0 0 0 3 3 3 19 32 35 39 39 42 32 29 35 29 29 35 42 48 45 45 55 61 42 42 52
0 0 0 0 0 0 0 0 0 0 0 0 0 0 0 0 0 0 0 0 3 3 3 10 26 32 35 32 35 29 23 26 29 32 32 45 45 35 39 48 55 55 52
0 0 0 0 0 0 0 0 0 0 0 0 0 0 0 0 0 0 0 0 0 3 0 0 3 10 23 32 32 26 26 23 23 29 26 35 39 42 45 48 48 55 55
0 0 0 0 0 0 0 0 0 0 0 0 0 0 0 0 0 0 0 0 0 0 0 0 0 0 6 10 19 23 23 26 23 23 29 23 35 32 42 42 39 35 35
0 0 0 0 0 0 0 0 0 0 0 0 0 0 0 0 0 0 0 0 0 0 0 0 0 0 0 3 6 16 19 23 19 19 26 29 32 26 29 39 39 39 42
0 0 0 0 0 0 0 0 0 0 0 0 0 0 0 0 0 0 0 0 0 0 0 0 0 0 0 0 0 0 13 16 19 16 16 23 19 29 26 29 26 29 45
0 0 0 0 0 0 0 0 0 0 0 0 0 0 0 0 0 0 0 0 0 0 0 0 0 0 0 0 0 0 0 3 19 16 16 19 19 19 19 32 23 35 42
0 0 0 0 0 0 0 0 0 0 0 0 0 0 0 0 0 0 0 0 0 0 0 0 0 0 0 0 0 0 0 0 3 23 19 19 19 23 23 26 32 29 29
0 0 0 0 0 0 0 0 0 0 0 0 0 0 0 0 0 0 0 0 0 0 0 0 0 0 0 0 0 0 0 0 0 3 10 10 16 23 26 23 26 19 19
0 0 0 0 0 0 0 0 0 0 0 0 0 0 0 0 0 0 0 0 0 0 0 0 0 0 0 0 0 0 0 0 0 0 0 3 3 13 16 16 16 19 19
0 0 0 0 0 0 0 0 0 0 0 0 0 0 0 0 0 0 0 0 0 0 0 0 0 0 0 0 0 0 0 0 0 0 0 0 0 3 6 6 13 23 26
0 0 0 0 0 0 0 0 0 0 0 0 0 0 0 0 0 0 0 0 0 0 0 0 0 0 0 0 0 0 0 0 0 0 0 0 0 0 0 3 3 6 13
0 0 0 0 0 0 0 0 0 0 0 0 0 0 0 0 0 0 0 0 0 0 0 0 0 0 0 0 0 0 0 0 0 0 0 0 0 0 0 0 0 0 0
0 0 0 0 0 0 0 0 0 0 0 0 0 0 0 0 0 0 0 0 0 0 0 0 0 0 0 0 0 0 0 0 0 0 0 0 0 0 0 0 0 0 0
0 0 0 0 0 0 0 0 0 0 0 0 0 0 0 0 0 0 0 0 0 0 0 0 0 0 0 0 0 0 0 0 0 0 0 0 0 0 0 0 0 0 0
0 0 0 0 0 0 0 0 0 0 0 0 0 0 0 0 0 0 0 0 0 0 0 0 0 0 0 0 0 0 0 0 0 0 0 0 0 0 0 0 0 0 0
0 0 0 0 0 0 0 0 0 0 0 0 0 0 0 0 0 0 0 0 0 0 0 0 0 0 0 0 0 0 0 0 0 0 0 0 0 0 0 0 0 0 0
0 0 0 0 0 0 0 0 0 0 0 0 0 0 0 0 0 0 0 0 0 0 0 0 0 0 0 0 0 0 0 0 0 0 0 0 0 0 0 0 0 0 0
0 0 0 0 0 0 0 0 0 0 0 0 0 0 0 0 0 0 0 0 0 0 0 0 0 0 0 0 0 0 0 0 0 0 0 0 0 0 0 0 0 0 0
0 0 0 0 0 0 0 0 0 0 0 0 0 0 0 0 0 0 0 0 0 0 0 0 0 0 0 0 0 0 0 0 0 0 0 0 0 0 0 0 0 0 0
0 0 0 0 0 0 0 0 0 0 0 0 0 0 0 0 0 0 0 0 0 0 0 0 0 0 0 0 0 0 0 0 0 0 0 0 0 0 0 0 0 0 0
0 0 0 0 0 0 0 0 0 0 0 0 0 0 0 0 0 0 0 0 0 0 0 0 0 0 0 0 0 0 0 0 0 0 0 0 0 0 0 0 0 0 0
0 0 0 0 0 0 0 0 0 0 0 0 0 0 0 0 0 0 0 0 0 0 0 0 0 0 0 0 0 0 0 0 0 0 0 0 0 0 0 0 0 0 0
Height
5860 5859 5857 5854 5852 5850 5848 5847 5846 5844 5844 5843 5843 5844 5844 5845 5846 5847 5848 5849 5851 5852 5854 5856 5858 5860 5862 5864 5866 5868 5870 5872 5874 5876 5877 5879 5881 5883 5885 5888 5891 5895 5898
5859 5857 5855 5853 5851 5848 5846 5844 5843 5842 5841 5840 5841 5841 5841 5842 5843 5844 5845 5846 5848 5850 5852 5854 5856 5858 5860 5862 5864 5866 5868 5870 5872 5874 5875 5876 5877 5879 5882 5886 5890 5894 5897
5858 5856 5854 5851 5849 5846 5844 5842 5840 5839 5838 5838 5838 5838 5839 5839 5840 5841 5842 5844 5845 5847 5849 5851 5854 5856 5858 5860 5862 5864 5866 5867 5869 5871 5872 5873 5873 5874 5879 5884 5889 5892 5896
5857 5855 5852 5850 5847 5845 5842 5840 5838 5837 5836 5835 5835 5835 5836 5837 5837 5838 5840 5841 5843 5845 5847 5849 5851 5853 5855 5858 5860 5862 5863 5865 5867 5869 5871 5870 5870 5873 5878 5883 5887 5891 5894
5856 5854 5851 5849 5846 5843 5841 5839 5837 5835 5834 5833 5833 5833 5833 5834 5835 5836 5837 5838 5840 5842 5844 5846 5848 5851 5853 5855 5858 5860 5862 5863 5865 5867 5869 5870 5871 5874 5878 5882 5886 5889 5892
5855 5853 5850 5847 5845 5842 5839 5837 5835 5833 5832 5831 5830 5830 5831 5832 5832 5833 5835 5836 5838 5840 5842 5844 5846 5848 5850 5853 5855 5857 5859 5861 5863 5866 5868 5870 5871 5874 5878 5881 5885 5888 5890
5854 5852 5849 5846 5844 5841 5838 5836 5834 5832 5830 5829 5828 5828 5829 5829 5830 5831 5832 5834 5835 5837 5839 5841 5844 5846 5848 5850 5853 5855 5857 5859 5862 5864 5866 5869 5871 5873 5877 5880 5882 5885 5888
5853 5851 5848 5846 5843 5840 5838 5835 5833 5831 5829 5827 5827 5827 5827 5828 5828 5829 5830 5831 5833 5835 5837 5839 5841 5843 5845 5848 5850 5852 5855 5857 5859 5862 5864 5867 5870 5872 5875 5878 5880 5882 5885
5853 5850 5848 5845 5842 5840 5837 5834 5832 5830 5828 5827 5826 5826 5825 5826 5826 5827 5828 5830 5831 5833 5835 5837 5839 5841 5843 5845 5847 5849 5852 5855 5857 5859 5862 5864 5867 5869 5872 5875 5877 5880 5882
5852 5850 5847 5844 5842 5839 5837 5834 5832 5830 5828 5826 5825 5824 5824 5824 5825 5825 5827 5828 5829 5830 5832 5834 5836 5838 5839 5842 5844 5846 5849 5852 5854 5856 5859 5861 5864 5866 5869 5871 5873 5876 5879
5851 5849 5847 5844 5842 5839 5837 5834 5832 5830 5828 5826 5825 5824 5823 5823 5824 5824 5825 5826 5827 5828 5829 5831 5833 5835 5837 5838 5841 5843 5846 5848 5851 5853 5855 5858 5860 5862 5865 5868 5870 5872 5874
5851 5849 5846 5844 5841 5839 5837 5835 5832 5830 5828 5827 5825 5824 5823 5823 5823 5823 5823 5824 5825 5826 5827 5828 5830 5832 5833 5835 5837 5840 5842 5845 5847 5849 5852 5854 5856 5859 5861 5864 5866 5868 5871
5850 5848 5846 5844 5841 5839 5837 5835 5832 5830 5828 5827 5825 5824 5823 5823 5822 5822 5822 5823 5823 5824 5825 5826 5827 5829 5830 5832 5834 5836 5838 5840 5843 5845 5848 5850 5852 5855 5857 5860 5862 5864 5867
5849 5847 5845 5843 5841 5839 5837 5835 5832 5830 5828 5827 5825 5824 5823 5822 5822 5821 5821 5821 5821 5822 5823 5824 5824 5826 5827 5828 5830 5832 5834 5836 5838 5840 5843 5845 5848 5850 5853 5855 5857 5859 5862
5848 5846 5845 5843 5841 5838 5836 5834 5832 5830 5828 5826 5825 5824 5823 5821 5821 5820 5820 5820 5820 5820 5821 5821 5822 5823 5824 5825 5827 5828 5830 5832 5834 5836 5838 5840 5843 5845 5848 5850 5852 5854 5857
5847 5845 5844 5842 5840 5838 5836 5834 5832 5830 5828 5826 5824 5823 5822 5821 5820 5819 5819 5818 5818 5819 5819 5819 5819 5820 5821 5822 5823 5824 5825 5827 5829 5831 5833 5835 5837 5840 5842 5845 5847 5849 5851
5845 5844 5842 5841 5839 5837 5835 5833 5831 5828 5826 5825 5823 5822 5821 5819 5819 5818 5817 5817 5816 5816 5816 5817 5816 5817 5818 5818 5819 5820 5821 5822 5824 5826 5828 5830 5832 5834 5836 5838 5840 5842 5845
5843 5842 5840 5839 5837 5835 5833 5831 5829 5827 5825 5823 5822 5820 5819 5818 5817 5816 5815 5814 5814 5814 5814 5814 5813 5813 5814 5814 5815 5815 5816 5817 5819 5820 5822 5824 5826 5828 5830 5832 5834 5836 5838
5841 5840 5838 5836 5835 5833 5831 5829 5827 5825 5823 5821 5820 5818 5817 5815 5814 5813 5812 5811 5811 5810 5810 5810 5810 5809 5809 5810 5810 5810 5811 5812 5813 5814 5816 5817 5819 5821 5823 5825 5827 5829 5832
5838 5837 5835 5833 5832 5830 5828 5826 5824 5822 5820 5819 5817 5815 5813 5812 5811 5810 5808 5807 5807 5806 5806 5805 5805 5805 5805 5804 5804 5805 5805 5806 5807 5808 5809 5811 5812 5814 5816 5818 5820 5822 5824
5835 5833 5831 5830 5828 5826 5824 5822 5821 5819 5817 5815 5813 5811 5809 5807 5806 5805 5804 5803 5802 5801 5801 5800 5800 5799 5799 5799 5799 5799 5799 5800 5801 5801 5803 5804 5805 5807 5808 5810 5812 5814 5816
5831 5829 5827 5825 5823 5821 5819 5818 5816 5814 5812 5810 5808 5806 5804 5802 5801 5799 5798 5797 5796 5795 5795 5794 5794 5793 5793 5792 5792 5791 5792 5792 5793 5794 5795 5796 5797 5799 5801 5803 5804 5806 5808
5826 5824 5822 5820 5818 5816 5814 5812 5810 5808 5806 5803 5801 5799 5797 5796 5794 5793 5792 5790 5789 5788 5788 5787 5787 5786 5786 5785 5784 5784 5784 5784 5785 5786 5786 5788 5789 5791 5792 5794 5796 5797 5799
5820 5818 5816 5814 5812 5809 5807 5805 5803 5800 5798 5796 5794 5792 5790 5788 5786 5785 5784 5783 5782 5781 5780 5779 5779 5778 5778 5777 5776 5776 5776 5776 5777 5777 5778 5780 5781 5782 5784 5785 5787 5788 5790
5812 5810 5808 5806 5804 5802 5800 5797 5795 5793 5791 5789 5786 5784 5782 5780 5778 5776 5775 5774 5773 5773 5772 5771 5771 5770 5769 5769 5768 5768 5768 5768 5768 5769 5769 5770 5772 5773 5774 5776 5778 5779 5781
5804 5802 5800 5798 5796 5794 5791 5789 5787 5784 5782 5780 5778 5775 5773 5771 5769 5767 5766 5765 5764 5763 5762 5762 5762 5761 5760 5760 5759 5759 5759 5758 5759 5759 5759 5760 5761 5762 5765 5766 5768 5769 5771
Wind_Speed
10 11 12 12 12 12 12 12 11 11 10 10 10 9 9 9 9 10 11 11 11 12 13 13 13 13 14 14 14 13 13 13 14 15 15 15 16 18 18 18 18 18 18
11 11 12 13 13 13 12 12 11 11 10 10 10 10 9 9 9 9 11 12 12 12 13 13 13 14 14 15 14 13 14 14 15 15 15 15 16 18 19 19 18 18 18
11 12 12 13 13 13 13 11 10 10 10 9 9 9 10 9 9 9 10 12 12 13 13 14 14 14 15 15 14 14 14 14 15 16 15 15 16 19 20 20 19 18 17
11 12 13 13 13 13 12 11 10 10 9 8 9 9 9 9 10 10 10 11 12 12 13 14 14 14 14 15 15 15 15 14 14 16 15 15 16 18 20 20 20 19 17
11 12 13 13 13 13 13 12 11 10 9 8 8 8 8 9 9 10 11 11 12 12 13 14 14 15 15 14 15 15 15 15 15 16 16 15 17 19 20 20 20 19 18
12 13 13 14 14 13 13 12 11 10 9 8 8 8 8 8 8 9 10 10 11 11 13 13 14 15 16 15 15 15 15 16 16 15 16 17 18 19 19 19 20 20 19
12 13 14 14 14 13 13 12 11 11 9 8 7 7 7 7 8 9 9 10 10 11 12 13 14 14 15 16 16 15 16 16 17 17 17 18 18 19 19 19 19 20 19
12 13 14 14 14 13 13 12 11 11 10 8 7 6 6 6 7 8 9 9 10 11 12 13 14 14 15 16 16 17 16 17 18 18 18 18 18 18 19 20 20 20 20
12 13 14 14 14 13 13 13 12 11 10 8 7 5 5 5 6 7 8 9 9 11 12 13 14 15 15 16 16 17 17 17 18 20 19 19 20 19 19 20 21 21 22
12 13 14 14 14 13 13 13 12 11 10 9 7 6 4 4 4 6 7 8 9 10 12 13 14 15 15 17 17 18 18 18 18 19 21 21 21 21 20 21 22 22 22
12 13 14 14 13 13 13 12 12 12 11 9 8 6 5 3 3 5 6 7 9 10 11 13 14 15 15 16 18 18 19 19 19 20 21 22 22 22 21 21 22 22 21
12 13 13 13 13 13 12 12 12 12 11 10 8 7 6 4 4 4 5 7 8 9 11 13 14 14 15 16 18 19 19 20 20 21 21 22 22 23 23 23 23 23 23
12 12 12 13 13 13 12 12 12 12 11 10 9 8 6 5 4 4 5 6 7 8 10 12 13 14 15 16 17 18 20 20 21 22 23 23 23 24 24 24 24 25 24
11 12 12 12 13 13 13 12 12 12 12 11 10 8 7 6 5 5 6 7 8 8 9 11 12 13 14 16 17 18 19 20 21 21 23 24 25 25 24 25 25 25 25
11 12 12 12 12 13 13 13 13 13 12 11 10 10 9 8 7 7 7 6 7 8 9 11 12 13 14 16 17 18 19 20 20 21 22 23 25 25 26 26 26 26 26
11 12 12 12 12 13 13 13 13 13 12 11 11 10 10 9 9 8 9 9 9 9 10 11 12 13 15 16 17 18 19 20 21 22 23 24 25 26 26 27 27 28 28
11 12 12 12 13 13 13 13 13 14 13 12 12 11 11 10 10 10 10 10 10 10 11 11 13 14 15 16 18 18 18 20 21 22 23 24 26 27 27 28 29 29 28
12 13 13 13 13 14 14 14 14 14 13 13 13 12 12 12 12 12 12 12 12 12 12 12 13 14 16 17 18 19 20 20 21 23 24 25 26 27 28 29 29 29 28
14 14 14 15 15 15 15 16 15 15 15 14 14 14 14 14 14 14 14 14 14 14 14 14 15 16 17 18 19 20 21 21 22 23 24 25 26 27 28 28 29 29 29
15 15 16 16 16 17 17 17 17 17 17 17 17 17 17 16 16 16 16 16 17 17 17 17 17 18 18 19 21 21 22 23 23 24 25 26 27 28 29 29 30 30 31
17 18 18 18 18 19 19 19 19 19 19 19 19 19 19 19 19 18 18 18 18 19 19 19 20 20 20 21 22 23 24 25 25 26 27 27 28 29 30 31 31 31 32
20 20 20 21 21 21 22 22 22 21 21 22 22 21 21 21 21 21 20 20 20 21 21 21 21 22 22 23 24 24 25 26 26 27 28 28 30 30 31 31 32 32 33
22 23 23 23 23 24 24 24 25 25 25 24 24 24 24 24 24 24 23 23 23 23 23 23 23 23 23 24 24 25 25 26 27 28 29 29 30 30 31 32 32 31 32
25 25 26 26 26 26 27 27 27 27 26 26 26 26 26 26 26 26 25 25 25 25 25 25 25 25 25 25 25 26 26 27 27 29 30 29 30 31 31 32 33 33 33
28 28 28 29 29 29 29 29 29 29 28 28 28 28 28 28 28 28 28 28 27 28 28 28 28 28 27 28 28 28 28 28 28 29 31 31 32 33 33 33 33 34 34
31 31 31 31 32 32 31 31 31 31 31 31 31 31 31 31 31 31 31 31 31 31 31 31 32 31 31 31 31 31 31 31 31 32 33 33 34 35 35 35 35 35 35
Wind_Direction
334 333 333 332 330 326 321 312 305 300 292 282 275 270 267 263 259 251 243 241 237 232 228 225 221 219 218 217 216 216 217 215 210 208 212 212 209 206 202 196 195 197 198
333 334 334 333 332 330 325 318 310 303 293 281 274 268 266 261 259 255 244 237 232 230 227 224 220 220 219 217 217 217 217 217 216 215 214 213 212 206 202 197 197 197 197
335 337 337 336 335 333 330 325 317 309 299 286 277 270 265 263 259 256 247 236 229 229 226 221 221 221 221 217 218 219 220 220 218 216 214 213 211 205 202 198 197 197 201
339 339 339 339 338 336 335 330 323 316 307 294 280 273 266 264 259 254 248 237 229 227 225 221 220 223 223 218 219 220 220 220 217 213 213 209 206 201 201 198 198 202 204
340 340 342 343 342 341 339 336 330 325 315 303 286 276 267 263 258 252 246 238 232 226 224 222 221 223 224 221 219 220 217 215 214 211 211 205 200 198 199 199 203 207 208
343 344 345 346 346 345 343 341 337 330 321 310 293 280 270 263 258 251 242 236 231 227 222 221 221 221 223 223 222 218 215 214 213 211 209 207 202 200 202 203 207 210 212
348 349 348 348 348 348 347 346 343 339 332 322 306 288 273 263 258 248 239 233 230 228 224 221 221 222 223 222 222 220 218 216 215 214 210 211 210 206 207 208 211 212 214
350 351 352 351 351 350 350 349 347 345 341 334 323 303 282 267 256 245 238 234 231 230 226 225 225 225 227 224 223 222 221 219 217 217 214 214 213 213 213 214 215 213 214
350 352 353 354 354 354 353 353 351 349 347 344 336 322 300 283 264 245 238 236 234 233 228 226 228 227 228 225 224 224 222 222 220 219 219 217 214 216 218 220 220 218 219
349 351 353 355 355 356 356 355 355 353 353 353 349 339 321 295 271 254 245 242 241 236 230 228 230 231 231 227 225 226 224 224 223 223 224 222 219 221 222 225 223 221 221
349 350 353 354 355 356 357 357 357 358 357 357 356 351 341 317 284 264 256 251 245 239 233 231 232 235 234 229 226 227 227 227 227 226 226 226 224 225 224 226 226 222 221
346 349 351 353 355 355 355 357 357 357 358 358 358 355 348 334 307 279 267 259 251 242 236 235 234 234 235 232 228 229 229 231 231 230 230 230 228 227 228 228 226 224 224
346 350 352 353 355 355 355 355 356 356 356 356 355 352 346 335 319 294 280 270 258 248 242 241 237 235 236 234 231 230 231 232 232 231 231 231 229 229 230 229 228 228 227
345 348 350 352 353 354 353 353 354 354 354 355 354 349 343 333 319 306 293 279 267 257 251 247 243 241 239 236 234 235 235 234 233 232 233 232 232 232 232 232 231 232 232
340 342 344 347 348 349 350 351 351 350 349 349 348 344 340 332 322 311 301 290 277 265 257 255 252 247 244 240 239 239 240 239 236 236 235 234 233 234 235 234 234 234 235
333 336 338 340 342 345 346 348 348 348 347 344 342 340 336 329 321 312 302 295 286 278 270 262 257 253 248 246 244 245 243 244 241 239 237 237 236 235 237 237 237 238 237
327 329 331 333 335 337 338 340 341 342 341 339 337 332 329 324 317 310 303 296 290 284 279 271 264 259 254 252 250 249 249 248 245 243 241 241 239 238 240 241 241 240 239
323 323 323 325 326 329 331 332 332 333 334 331 329 327 324 319 315 309 302 298 293 289 284 277 270 265 262 259 257 253 253 252 248 246 246 244 242 241 242 241 240 239 239
316 317 317 318 319 321 323 324 324 324 324 323 321 319 317 314 311 307 301 296 293 290 287 281 275 271 267 264 262 257 256 254 251 250 248 246 244 242 242 242 243 242 241
311 311 313 314 315 316 317 318 318 318 317 316 313 313 311 309 307 304 300 294 291 289 287 285 280 275 272 268 265 262 258 256 255 254 251 248 247 245 245 245 245 246 244
308 308 309 309 308 309 310 311 312 313 312 311 309 307 305 305 303 301 299 294 291 288 286 284 281 277 274 272 269 266 261 259 258 256 255 252 249 248 247 246 246 247 246
304 304 305 305 306 305 305 306 306 306 306 306 305 303 302 301 300 298 296 293 290 287 286 284 282 279 277 275 272 268 264 262 260 258 256 254 252 249 248 248 248 248 248
300 301 302 303 303 304 305 305 304 303 303 302 301 300 299 298 296 294 292 289 287 286 284 283 283 282 280 277 274 270 267 265 262 260 258 256 254 253 251 249 249 250 249
298 298 299 300 301 301 302 303 302 301 300 299 299 299 298 296 294 292 290 288 285 283 282 281 281 280 279 277 275 273 270 268 265 262 260 258 256 254 253 252 251 250 251
297 296 297 298 298 298 299 298 299 298 298 298 298 297 296 295 293 291 289 287 284 281 280 279 278 278 276 275 274 273 271 269 267 264 262 260 257 256 254 254 253 252 252
295 295 296 297 297 296 296 296 296 296 296 295 295 294 294 294 292 291 289 286 284 281 279 278 277 276 275 274 273 273 271 269 268 265 263 260 258 257 255 255 254 254 255